• In Deutschland
  • Länderverzeichnis
  • Für 7 Tage
  • Wassertemperatur
  • Satellitenkarten
  • Wetterkarte
  • Widgets
  • user-avatar
    Anmelden

    Stündliche Wetter Mykhal'cha

    Heute, 25 Mai, Freitag

    Zeit Temperatur Niederschläge Wind Luftdruck Luftfeuchtigkeit
    00:00 +17°C° 0 mm 3 m/S 739 mmHg 98%
    01:00 +16°C° 0 mm 3 m/S 739 mmHg 97%
    02:00 +16°C° 0 mm 2 m/S 739 mmHg 97%
    03:00 +16°C° 0,2 mm 3 m/S 740 mmHg 100%
    04:00 +16°C° 1,8 mm 2 m/S 740 mmHg 100%
    05:00 +16°C° 1,2 mm 3 m/S 740 mmHg 100%
    06:00 +16°C° 0 mm 2 m/S 739 mmHg 100%
    07:00 +17°C° 0 mm 2 m/S 740 mmHg 97%
    08:00 +18°C° 0 mm 2 m/S 740 mmHg 95%
    09:00 +19°C° 0 mm 2 m/S 740 mmHg 95%
    10:00 +20°C° 0 mm 2 m/S 740 mmHg 90%
    11:00 +22°C° 0 mm 1 m/S 740 mmHg 87%
    12:00 +21°C° 0 mm 2 m/S 740 mmHg 85%
    13:00 +23°C° 0 mm 2 m/S 740 mmHg 81%
    14:00 +24°C° 0 mm 2 m/S 739 mmHg 76%
    15:00 +23°C° 0 mm 4 m/S 739 mmHg 80%
    16:00 +24°C° 0,1 mm 2 m/S 739 mmHg 77%
    17:00 +22°C° 0,1 mm 6 m/S 740 mmHg 84%
    18:00 +23°C° 0,1 mm 2 m/S 740 mmHg 80%
    19:00 +23°C° 0 mm 2 m/S 740 mmHg 88%
    20:00 +21°C° 0,1 mm 4 m/S 740 mmHg 97%
    21:00 +19°C° 0 mm 2 m/S 741 mmHg 99%
    22:00 +19°C° 0 mm 3 m/S 741 mmHg 100%
    23:00 +19°C° 0 mm 3 m/S 741 mmHg 100%

    Morgen, 26 Mai, Samstag

    Zeit Temperatur Niederschläge Wind Luftdruck Luftfeuchtigkeit
    00:00 +19°C° 0 mm 2 m/S 741 mmHg 100%
    01:00 +18°C° 0 mm 4 m/S 741 mmHg 100%
    02:00 +19°C° 0 mm 1 m/S 742 mmHg 100%
    03:00 +18°C° 0 mm 1 m/S 742 mmHg 100%
    04:00 +17°C° 0 mm 2 m/S 742 mmHg 100%
    05:00 +17°C° 0 mm 2 m/S 742 mmHg 100%
    06:00 +17°C° 0 mm 2 m/S 742 mmHg 100%
    07:00 +17°C° 0 mm 3 m/S 743 mmHg 100%
    08:00 +17°C° 0 mm 2 m/S 743 mmHg 99%
    09:00 +18°C° 0 mm 2 m/S 743 mmHg 98%
    10:00 +19°C° 0 mm 2 m/S 744 mmHg 95%
    11:00 +20°C° 0 mm 2 m/S 744 mmHg 91%
    12:00 +20°C° 0,1 mm 3 m/S 744 mmHg 93%
    13:00 +21°C° 0,1 mm 4 m/S 744 mmHg 92%
    14:00 +21°C° 0,2 mm 4 m/S 743 mmHg 89%
    15:00 +21°C° 0,7 mm 5 m/S 743 mmHg 90%
    16:00 +21°C° 1,3 mm 5 m/S 743 mmHg 86%
    17:00 +21°C° 0 mm 5 m/S 743 mmHg 84%
    18:00 +21°C° 0 mm 4 m/S 743 mmHg 88%
    19:00 +19°C° 0,1 mm 4 m/S 743 mmHg 94%
    20:00 +19°C° 0 mm 3 m/S 743 mmHg 92%
    21:00 +18°C° 0 mm 3 m/S 743 mmHg 99%
    22:00 +18°C° 0 mm 3 m/S 744 mmHg 99%
    23:00 +17°C° 0 mm 3 m/S 744 mmHg 100%

    übermorgen, 27 Mai, Sonntag

    Zeit Temperatur Niederschläge Wind Luftdruck Luftfeuchtigkeit
    00:00 +17°C° 0 mm 3 m/S 744 mmHg 100%
    01:00 +16°C° 0 mm 3 m/S 743 mmHg 100%
    02:00 +15°C° 0 mm 4 m/S 743 mmHg 100%
    03:00 +14°C° 0 mm 4 m/S 743 mmHg 100%
    04:00 +14°C° 0 mm 3 m/S 743 mmHg 100%
    05:00 +14°C° 0 mm 3 m/S 743 mmHg 100%
    06:00 +15°C° 0 mm 2 m/S 743 mmHg 100%
    07:00 +14°C° 0 mm 3 m/S 744 mmHg 100%
    08:00 +14°C° 0 mm 3 m/S 744 mmHg 100%
    09:00 +16°C° 0 mm 3 m/S 744 mmHg 99%
    10:00 +17°C° 0 mm 3 m/S 744 mmHg 97%
    11:00 +18°C° 0 mm 3 m/S 744 mmHg 97%
    12:00 +19°C° 0 mm 3 m/S 744 mmHg 91%
    13:00 +19°C° 0 mm 5 m/S 743 mmHg 91%
    14:00 +20°C° 0 mm 5 m/S 743 mmHg 89%
    15:00 +21°C° 0 mm 4 m/S 743 mmHg 88%
    16:00 +20°C° 0,1 mm 4 m/S 743 mmHg 88%
    17:00 +19°C° 0,4 mm 5 m/S 743 mmHg 94%
    18:00 +19°C° 0,2 mm 4 m/S 742 mmHg 91%
    19:00 +19°C° 0,1 mm 4 m/S 743 mmHg 93%
    20:00 +18°C° 0 mm 4 m/S 743 mmHg 94%
    21:00 +17°C° 0 mm 3 m/S 743 mmHg 96%
    22:00 +17°C° 0 mm 2 m/S 743 mmHg 100%
    23:00 +16°C° 0 mm 2 m/S 743 mmHg 100%

    28 Mai, Montag

    Zeit Temperatur Niederschläge Wind Luftdruck Luftfeuchtigkeit
    00:00 +16°C° 0 mm 1 m/S 743 mmHg 100%
    01:00 +15°C° 0 mm 1 m/S 743 mmHg 100%
    02:00 +15°C° 0 mm 1 m/S 743 mmHg 100%
    03:00 +15°C° 0 mm 1 m/S 743 mmHg 100%
    04:00 +15°C° 0 mm 1 m/S 743 mmHg 100%
    05:00 +15°C° 0 mm 1 m/S 744 mmHg 100%
    06:00 +15°C° 0 mm 2 m/S 744 mmHg 100%
    07:00 +15°C° 0 mm 2 m/S 744 mmHg 100%
    08:00 +15°C° 0 mm 2 m/S 744 mmHg 100%
    09:00 +16°C° 0 mm 2 m/S 745 mmHg 99%
    10:00 +18°C° 0 mm 2 m/S 745 mmHg 97%
    11:00 +18°C° 0 mm 3 m/S 745 mmHg 92%
    12:00 +19°C° 0 mm 3 m/S 745 mmHg 91%
    13:00 +19°C° 0,4 mm 3 m/S 745 mmHg 86%
    14:00 +19°C° 0 mm 4 m/S 745 mmHg 85%

    29 Mai, Dienstag

    Zeit Temperatur Niederschläge Wind Luftdruck Luftfeuchtigkeit

    30 Mai, Mittwoch

    Zeit Temperatur Niederschläge Wind Luftdruck Luftfeuchtigkeit
    Mehr zeigen